Content
SEND FEEDBACK

Daily
Averages
Monthly
Summary
United States of America

BRILLION, WISCONSIN


Home > North America > United States > Wisconsin
Elevation: 820 feet     Latitude: 44 11N     Longitude: 088 04W

WEATHER
 
SELECT A DAY
Number of Records: 222,340;   Date Range: 1/1/95 - 7/7/14
 
SHARE

PRINT THIS DATA

[ ← Previous Day ]
WEATHER ALMANAC - JANUARY 31, 2013
[ Next Day → ]
[ °C ]   °F
Weather ElementAverageHighLow
Temperature12.4 °F17.6 °F (12:35 am)6.8 °F (10:15 pm)
Dewpoint3.9 °F10.4 °F (12:35 am)-2.2 °F (10:55 pm)
Humidity68.8 %79 % (12:55 am)58 % (1:55 pm)
Barometer29.75 in30.01 in (11:15 pm)29.50 in (12:35 am)
Wind Speed16.5 mph19.6 mph (9:55 am)
Wind Gust28.8 mph (10:15 am)
Weather ElementAverage
Visibility9.8 mi
Wind DirectionWNW (276 °)

Weather ElementTotal
Precipitation---
Heating Degree Days52.8 (Base 65)
Averaged from 68 records on January 31, 2013
WEATHER CONDITIONS BREAKOUT
WIND DIRECTION BREAKOUT
WEATHER BY HOUR - JANUARY 31, 2013
[ °C ]   °F
Local TimeTemperatureDewpointHumidityBarometerVisibilityWind DirectionWind SpeedGust SpeedPrecipitationEventsConditions
12:35 AM17.6 °F10.4 °F73 %29.50 in9.0 miWNW (290°)15.0 mph24.2 mphMostly Cloudy
12:55 AM15.8 °F10.4 °F79 %29.51 in5.0 miWest (280°)17.3 mph24.2 mphOvercast
1:15 AM15.8 °F10.4 °F79 %29.52 in8.0 miWest (270°)12.7 mph18.4 mphOvercast
1:35 AM15.8 °F10.4 °F79 %29.53 in10.0 miWest (270°)16.1 mph23.0 mphMostly Cloudy
1:55 AM15.8 °F10.4 °F79 %29.54 in10.0 miWest (280°)17.3 mph24.2 mphOvercast
2:15 AM15.8 °F8.6 °F73 %29.54 in10.0 miWest (270°)16.1 mph25.3 mphOvercast
2:35 AM15.8 °F8.6 °F73 %29.55 in10.0 miWest (270°)15.0 mph20.7 mphScattered Clouds
2:55 AM15.8 °F8.6 °F73 %29.55 in10.0 miWest (280°)15.0 mph20.7 mphPartly Cloudy
3:15 AM15.8 °F8.6 °F73 %29.55 in10.0 miWest (270°)16.1 mphMostly Cloudy
3:35 AM15.8 °F8.6 °F73 %29.56 in10.0 miWest (270°)15.0 mph21.9 mphMostly Cloudy
3:55 AM15.8 °F8.6 °F73 %29.57 in10.0 miWest (270°)15.0 mphOvercast
4:15 AM15.8 °F8.6 °F73 %29.57 in10.0 miWest (270°)17.3 mph26.5 mphOvercast
4:35 AM15.8 °F6.8 °F68 %29.58 in10.0 miWest (270°)16.1 mph25.3 mphOvercast
4:55 AM14.0 °F6.8 °F73 %29.59 in10.0 miWest (280°)15.0 mph24.2 mphOvercast
5:15 AM14.0 °F6.8 °F73 %29.59 in10.0 miWest (280°)17.3 mph25.3 mphOvercast
5:35 AM14.0 °F6.8 °F73 %29.60 in10.0 miWest (280°)15.0 mph24.2 mphOvercast
6:15 AM12.2 °F5.0 °F73 %29.61 in10.0 miWest (280°)18.4 mph25.3 mphOvercast
6:35 AM12.2 °F5.0 °F73 %29.62 in10.0 miWest (280°)18.4 mph23.0 mphOvercast
6:55 AM12.2 °F5.0 °F73 %29.63 in10.0 miWest (280°)17.3 mph23.0 mphOvercast
7:15 AM12.2 °F5.0 °F73 %29.63 in10.0 miWest (280°)17.3 mph23.0 mphOvercast
7:35 AM12.2 °F5.0 °F73 %29.65 in10.0 miWest (280°)15.0 mph23.0 mphOvercast
7:55 AM12.2 °F3.2 °F67 %29.66 in10.0 miWest (270°)16.1 mph20.7 mphOvercast
8:15 AM12.2 °F5.0 °F73 %29.67 in10.0 miWest (260°)17.3 mph20.7 mphOvercast
8:35 AM12.2 °F3.2 °F67 %29.68 in10.0 miWest (280°)17.3 mph24.2 mphOvercast
8:55 AM12.2 °F3.2 °F67 %29.69 in10.0 miWest (270°)15.0 mph18.4 mphMostly Cloudy
9:15 AM12.2 °F3.2 °F67 %29.70 in9.0 miWest (280°)17.3 mph23.0 mphPartly Cloudy
9:35 AM12.2 °F3.2 °F67 %29.71 in10.0 miWest (280°)17.3 mph23.0 mphClear
9:55 AM12.2 °F3.2 °F67 %29.72 in10.0 miWest (280°)19.6 mph26.5 mphClear
10:15 AM12.2 °F3.2 °F67 %29.73 in10.0 miWNW (290°)19.6 mph28.8 mphClear
10:35 AM12.2 °F3.2 °F67 %29.74 in10.0 miWNW (290°)17.3 mph24.2 mphClear
10:55 AM12.2 °F3.2 °F67 %29.74 in10.0 miWest (270°)16.1 mph21.9 mphClear
11:15 AM12.2 °F3.2 °F67 %29.74 in10.0 miWest (280°)17.3 mph23.0 mphClear
11:35 AM14.0 °F3.2 °F62 %29.74 in10.0 miWest (280°)16.1 mph21.9 mphClear
11:55 AM14.0 °F3.2 °F62 %29.74 in10.0 miWest (270°)17.3 mphClear
12:15 PM14.0 °F3.2 °F62 %29.75 in10.0 miWest (270°)18.4 mph25.3 mphClear
12:35 PM14.0 °F3.2 °F62 %29.75 in10.0 miWest (270°)16.1 mph21.9 mphClear
12:55 PM14.0 °F3.2 °F62 %29.76 in10.0 miWest (270°)13.8 mph23.0 mphClear
1:15 PM14.0 °F3.2 °F62 %29.76 in10.0 miWNW (290°)18.4 mph23.0 mphClear
1:35 PM14.0 °F3.2 °F62 %29.76 in10.0 miWest (270°)17.3 mph24.2 mphClear
1:55 PM15.8 °F3.2 °F58 %29.77 in10.0 miWest (280°)17.3 mph23.0 mphClear
2:15 PM14.0 °F3.2 °F62 %29.78 in10.0 miWest (260°)16.1 mph25.3 mphPartly Cloudy
2:35 PM14.0 °F3.2 °F62 %29.79 in10.0 miWest (260°)16.1 mph24.2 mphScattered Clouds
2:55 PM14.0 °F3.2 °F62 %29.79 in10.0 miWest (280°)17.3 mph20.7 mphScattered Clouds
3:15 PM14.0 °F3.2 °F62 %29.80 in10.0 miWest (270°)17.3 mph24.2 mphMostly Cloudy
3:35 PM12.2 °F3.2 °F67 %29.81 in10.0 miWest (270°)15.0 mph24.2 mphOvercast
3:55 PM12.2 °F3.2 °F67 %29.82 in10.0 miWest (270°)13.8 mph23.0 mphMostly Cloudy
4:15 PM12.2 °F3.2 °F67 %29.83 in10.0 miWest (260°)15.0 mph20.7 mphMostly Cloudy
4:35 PM12.2 °F1.4 °F62 %29.84 in10.0 miWest (270°)16.1 mph24.2 mphOvercast
4:55 PM12.2 °F3.2 °F67 %29.85 in10.0 miWest (260°)12.7 mph20.7 mphOvercast
5:15 PM10.4 °F1.4 °F67 %29.85 in10.0 miWest (270°)15.0 mph23.0 mphOvercast
5:35 PM10.4 °F3.2 °F73 %29.86 in10.0 miWest (270°)16.1 mphOvercast
5:55 PM10.4 °F1.4 °F67 %29.87 in10.0 miWest (270°)19.6 mph25.3 mphMostly Cloudy
6:15 PM10.4 °F1.4 °F67 %29.88 in10.0 miWest (270°)17.3 mph25.3 mphMostly Cloudy
6:35 PM10.4 °F1.4 °F67 %29.89 in9.0 miWest (270°)18.4 mph27.6 mphOvercast
6:55 PM10.4 °F1.4 °F67 %29.90 in10.0 miWest (270°)19.6 mph23.0 mphOvercast
7:15 PM10.4 °F1.4 °F67 %29.91 in9.0 miWest (270°)18.4 mph23.0 mphOvercast
7:35 PM10.4 °F1.4 °F67 %29.92 in7.0 miWest (280°)18.4 mph23.0 mphOvercast
8:15 PM8.6 °F-0.4 °F67 %29.94 in10.0 miWNW (290°)19.6 mph25.3 mphMostly Cloudy
8:35 PM8.6 °F1.4 °F73 %29.95 in10.0 miWNW (290°)17.3 mph23.0 mphPartly Cloudy
8:55 PM8.6 °F1.4 °F73 %29.96 in10.0 miWest (280°)17.3 mph24.2 mphScattered Clouds
9:15 PM8.6 °F1.4 °F73 %29.97 in10.0 miWest (280°)16.1 mphScattered Clouds
9:35 PM8.6 °F-0.4 °F67 %29.97 in10.0 miWNW (290°)15.0 mph20.7 mphPartly Cloudy
9:55 PM8.6 °F-0.4 °F67 %29.98 in10.0 miWest (280°)15.0 mph20.7 mphClear
10:15 PM6.8 °F-0.4 °F72 %29.98 in10.0 miWNW (290°)13.8 mphScattered Clouds
10:35 PM6.8 °F-0.4 °F72 %29.99 in10.0 miWNW (290°)15.0 mph21.9 mphPartly Cloudy
10:55 PM6.8 °F-2.2 °F67 %30.00 in10.0 miWNW (290°)15.0 mph24.2 mphPartly Cloudy
11:15 PM6.8 °F-0.4 °F72 %30.01 in10.0 miWNW (290°)16.1 mph24.2 mphScattered Clouds
11:35 PM6.8 °F-2.2 °F67 %30.01 in10.0 miWest (280°)16.1 mph24.2 mphClear
Hourly data recorded from KMTW, located miles away from Brillion, Wisconsin







STORIES FROM OUR PARTNERS